| time (UTC) | temp C | wind direction | speed KPH | gust KPH | rain 1hr cm | rain 24hr cm | rain mn cm | humidity % | barometer mb |
| 20260509212848 | 31 | 267 | 1.6 | 6.4 | 0.00 | 0.08 | 0.08 | 56 | 1008.9 |
| 20260509212344 | 31 | 267 | 1.6 | 11.3 | 0.00 | 0.08 | 0.08 | 55 | 1008.9 |
| 20260509211843 | 32 | 0.0 | 11.3 | 0.00 | 0.08 | 0.08 | 53 | 1009.0 | |
| 20260509211340 | 32 | 0.0 | 3.2 | 0.00 | 0.08 | 0.08 | 52 | 1009.0 | |
| 20260509210838 | 32 | 0.0 | 3.2 | 0.00 | 0.08 | 0.08 | 49 | 1009.1 | |
| 20260509210334 | 32 | 0.0 | 3.2 | 0.00 | 0.08 | 0.08 | 50 | 1009.1 | |
| 20260509205833 | 32 | 0.0 | 3.2 | 0.00 | 0.08 | 0.08 | 49 | 1009.2 | |
| 20260509205330 | 32 | 0.0 | 0.0 | 0.00 | 0.08 | 0.08 | 53 | 1009.2 | |
| 20260509204828 | 31 | 0.0 | 1.6 | 0.00 | 0.08 | 0.08 | 56 | 1009.3 | |
| 20260509204324 | 31 | 0.0 | 1.6 | 0.00 | 0.08 | 0.08 | 55 | 1009.4 | |
| 20260509203823 | 31 | 0.0 | 1.6 | 0.00 | 0.08 | 0.08 | 56 | 1009.5 | |
| 20260509203320 | 31 | 0.0 | 3.2 | 0.00 | 0.08 | 0.08 | 59 | 1009.6 | |
| 20260509202818 | 31 | 0.0 | 3.2 | 0.00 | 0.08 | 0.08 | 57 | 1009.7 | |
| 20260509202314 | 31 | 0.0 | 3.2 | 0.00 | 0.08 | 0.08 | 53 | 1009.8 | |
| 20260509201813 | 31 | 0.0 | 3.2 | 0.00 | 0.08 | 0.08 | 55 | 1010.0 | |
| 20260509201310 | 30 | 0.0 | 4.8 | 0.00 | 0.08 | 0.08 | 55 | 1010.1 | |
| 20260509200808 | 30 | 0.0 | 4.8 | 0.00 | 0.08 | 0.08 | 54 | 1010.2 | |
| 20260509200304 | 30 | 0.0 | 1.6 | 0.00 | 0.08 | 0.08 | 59 | 1010.3 | |
| 20260509195803 | 30 | 0.0 | 3.2 | 0.00 | 0.08 | 0.08 | 55 | 1010.3 | |
| 20260509195300 | 30 | 0.0 | 3.2 | 0.00 | 0.08 | 0.08 | 55 | 1010.3 | |
| 20260509194757 | 30 | 0.0 | 9.7 | 0.00 | 0.08 | 0.08 | 54 | 1010.3 | |
| 20260509194254 | 30 | 267 | 3.2 | 9.7 | 0.00 | 0.08 | 0.08 | 57 | 1010.2 |
| 20260509193752 | 30 | 267 | 1.6 | 4.8 | 0.00 | 0.08 | 0.08 | 62 | 1010.2 |
| 20260509193250 | 30 | 0.0 | 9.7 | 0.00 | 0.08 | 0.08 | 63 | 1010.2 | |
| 20260509192747 | 29 | 0.0 | 9.7 | 0.00 | 0.08 | 0.08 | 62 | 1010.3 | |
| 20260509192239 | 30 | 236 | 1.6 | 9.7 | 0.00 | 0.08 | 0.08 | 63 | 1010.4 |
| 20260509191737 | 29 | 0.0 | 6.4 | 0.00 | 0.08 | 0.08 | 67 | 1010.4 | |
| 20260509191235 | 29 | 0.0 | 6.4 | 0.00 | 0.08 | 0.08 | 68 | 1010.5 | |
| 20260509190732 | 29 | 0.0 | 4.8 | 0.00 | 0.08 | 0.08 | 73 | 1010.6 | |
| 20260509190229 | 28 | 0.0 | 4.8 | 0.00 | 0.08 | 0.08 | 72 | 1010.7 | |
| 20260509185727 | 28 | 0.0 | 3.2 | 0.00 | 0.08 | 0.08 | 76 | 1010.9 | |
| 20260509185225 | 28 | 0.0 | 0.0 | 0.00 | 0.08 | 0.08 | 79 | 1010.9 | |
| 20260509184722 | 27 | 0.0 | 0.0 | 0.00 | 0.08 | 0.08 | 77 | 1010.9 | |
| 20260509184219 | 27 | 0.0 | 3.2 | 0.00 | 0.08 | 0.08 | 79 | 1011.0 | |
| 20260509183717 | 27 | 0.0 | 3.2 | 0.00 | 0.08 | 0.08 | 80 | 1011.1 | |
| 20260509183215 | 26 | 0.0 | 0.0 | 0.00 | 0.08 | 0.08 | 82 | 1011.2 | |
| 20260509182712 | 26 | 0.0 | 0.0 | 0.00 | 0.08 | 0.08 | 80 | 1011.3 | |
| 20260509182209 | 26 | 0.0 | 0.0 | 0.00 | 0.08 | 0.08 | 81 | 1011.5 | |
| 20260509181707 | 26 | 0.0 | 0.0 | 0.00 | 0.08 | 0.08 | 83 | 1011.5 | |
| 20260509181203 | 26 | 0.0 | 0.0 | 0.00 | 0.08 | 0.08 | 84 | 1011.4 | |
| 20260509180702 | 26 | 0.0 | 0.0 | 0.00 | 0.08 | 0.08 | 83 | 1011.6 | |
| 20260509180159 | 26 | 0.0 | 0.0 | 0.03 | 0.08 | 0.08 | 82 | 1011.8 | |
| 20260509175657 | 26 | 0.0 | 1.6 | 0.03 | 0.08 | 0.08 | 80 | 1011.7 | |
| 20260509175153 | 26 | 0.0 | 1.6 | 0.05 | 0.08 | 0.08 | 80 | 1011.8 | |
| 20260509174652 | 26 | 0.0 | 0.0 | 0.08 | 0.08 | 0.08 | 80 | 1011.5 | |
| 20260509174149 | 26 | 0.0 | 0.0 | 0.08 | 0.08 | 0.08 | 80 | 1011.6 | |
| 20260509173647 | 26 | 0.0 | 0.0 | 0.08 | 0.08 | 0.08 | 84 | 1011.6 | |
| 20260509173143 | 25 | 0.0 | 0.0 | 0.08 | 0.08 | 0.08 | 85 | 1011.8 | |
| 20260509172642 | 25 | 0.0 | 0.0 | 0.08 | 0.08 | 0.08 | 86 | 1011.6 | |
| 20260509172139 | 25 | 0.0 | 0.0 | 0.08 | 0.08 | 0.08 | 85 | 1011.7 | |
| 20260509171636 | 25 | 0.0 | 0.0 | 0.08 | 0.08 | 0.08 | 86 | 1012.0 | |
| 20260509171133 | 25 | 0.0 | 0.0 | 0.08 | 0.08 | 0.08 | 85 | 1012.1 | |
| 20260509170631 | 25 | 0.0 | 0.0 | 0.08 | 0.08 | 0.08 | 84 | 1012.2 | |
| 20260509170129 | 25 | 0.0 | 0.0 | 0.05 | 0.05 | 0.05 | 82 | 1012.2 | |
| 20260509165626 | 26 | 0.0 | 4.8 | 0.05 | 0.05 | 0.05 | 80 | 1012.2 | |
| 20260509165123 | 26 | 0.0 | 4.8 | 0.00 | 0.00 | 0.00 | 77 | 1012.0 | |
| 20260509164621 | 26 | 0.0 | 11.3 | 0.00 | 0.00 | 0.00 | 77 | 1012.0 | |
| 20260509164119 | 26 | 194 | 3.2 | 11.3 | 0.00 | 0.00 | 0.00 | 76 | 1011.9 |
| 20260509163616 | 27 | 204 | 1.6 | 9.7 | 0.00 | 0.00 | 0.00 | 78 | 1011.7 |
| 20260509163113 | 27 | 206 | 1.6 | 8.0 | 0.00 | 0.00 | 0.00 | 77 | 1011.9 |
| 20260509162611 | 27 | 203 | 1.6 | 8.0 | 0.00 | 0.00 | 0.00 | 77 | 1012.0 |
| 20260509162109 | 27 | 192 | 1.6 | 12.9 | 0.00 | 0.00 | 0.00 | 78 | 1012.0 |
| 20260509161606 | 27 | 192 | 1.6 | 12.9 | 0.00 | 0.00 | 0.00 | 77 | 1012.0 |
| 20260509161103 | 27 | 239 | 1.6 | 6.4 | 0.00 | 0.00 | 0.00 | 72 | 1011.8 |
| 20260509160601 | 28 | 0.0 | 4.8 | 0.00 | 0.00 | 0.00 | 71 | 1011.7 | |
| 20260509160059 | 28 | 242 | 1.6 | 6.4 | 0.00 | 0.00 | 0.00 | 71 | 1011.7 |
| 20260509155556 | 28 | 242 | 1.6 | 6.4 | 0.00 | 0.00 | 0.00 | 71 | 1011.6 |
| 20260509155053 | 27 | 242 | 1.6 | 4.8 | 0.00 | 0.00 | 0.00 | 71 | 1011.6 |
| 20260509154551 | 27 | 0.0 | 4.8 | 0.00 | 0.00 | 0.00 | 72 | 1011.6 | |
| 20260509154047 | 27 | 0.0 | 3.2 | 0.00 | 0.00 | 0.00 | 73 | 1011.5 | |
| 20260509153546 | 27 | 0.0 | 4.8 | 0.00 | 0.00 | 0.00 | 72 | 1011.5 | |
| 20260509153043 | 27 | 242 | 1.6 | 4.8 | 0.00 | 0.00 | 0.00 | 73 | 1011.4 |
| 20260509152541 | 27 | 0.0 | 6.4 | 0.00 | 0.00 | 0.00 | 73 | 1011.3 | |
| 20260509152037 | 27 | 0.0 | 11.3 | 0.00 | 0.00 | 0.00 | 75 | 1011.2 | |
| 20260509151536 | 27 | 0.0 | 11.3 | 0.00 | 0.00 | 0.00 | 75 | 1011.0 | |
| 20260509151033 | 27 | 206 | 3.2 | 9.7 | 0.00 | 0.00 | 0.00 | 76 | 1010.9 |
| 20260509150530 | 27 | 213 | 1.6 | 9.7 | 0.00 | 0.00 | 0.00 | 77 | 1011.0 |
| 20260509150027 | 26 | 0.0 | 8.0 | 0.00 | 0.00 | 0.00 | 79 | 1011.1 | |
| 20260509145525 | 26 | 205 | 1.6 | 8.0 | 0.00 | 0.00 | 0.00 | 79 | 1010.9 |
| 20260509145023 | 26 | 189 | 1.6 | 9.7 | 0.00 | 0.00 | 0.00 | 80 | 1010.8 |
| 20260509144520 | 26 | 188 | 1.6 | 9.7 | 0.00 | 0.00 | 0.00 | 80 | 1010.9 |
| 20260509144017 | 25 | 201 | 1.6 | 9.7 | 0.00 | 0.00 | 0.00 | 81 | 1010.8 |
| 20260509143515 | 25 | 201 | 1.6 | 9.7 | 0.00 | 0.00 | 0.00 | 83 | 1010.7 |
| 20260509143013 | 25 | 201 | 1.6 | 4.8 | 0.00 | 0.00 | 0.00 | 84 | 1010.7 |
| 20260509142510 | 25 | 201 | 1.6 | 6.4 | 0.00 | 0.00 | 0.00 | 84 | 1010.6 |
| 20260509142007 | 25 | 201 | 1.6 | 8.0 | 0.00 | 0.00 | 0.00 | 84 | 1010.5 |
| 20260509141505 | 25 | 0.0 | 6.4 | 0.00 | 0.00 | 0.00 | 85 | 1010.6 | |
| 20260509141003 | 24 | 201 | 1.6 | 6.4 | 0.00 | 0.00 | 0.00 | 85 | 1010.6 |
| 20260509140500 | 24 | 201 | 1.6 | 8.0 | 0.00 | 0.00 | 0.00 | 87 | 1010.5 |
| 20260509135957 | 23 | 155 | 1.6 | 4.8 | 0.00 | 0.00 | 0.00 | 88 | 1010.5 |
| 20260509135455 | 23 | 1.6 | 8.0 | 0.00 | 0.00 | 0.00 | 89 | 1010.6 | |
| 20260509134953 | 23 | 155 | 1.6 | 8.0 | 0.00 | 0.00 | 0.00 | 90 | 1010.7 |
| 20260509134450 | 23 | 1.6 | 11.3 | 0.00 | 0.00 | 0.00 | 91 | 1010.7 | |
| 20260509133947 | 22 | 155 | 1.6 | 11.3 | 0.00 | 0.00 | 0.00 | 91 | 1010.5 |
| 20260509133445 | 22 | 154 | 1.6 | 14.5 | 0.00 | 0.00 | 0.00 | 93 | 1010.5 |
| 20260509132943 | 22 | 154 | 1.6 | 14.5 | 0.00 | 0.00 | 0.00 | 94 | 1010.3 |
| 20260509132440 | 22 | 103 | 1.6 | 9.7 | 0.00 | 0.00 | 0.00 | 94 | 1010.1 |
| 20260509131937 | 22 | 0.0 | 3.2 | 0.00 | 0.00 | 0.00 | 94 | 1010.4 | |
| 20260509131435 | 22 | 0.0 | 0.0 | 0.00 | 0.00 | 0.00 | 95 | 1010.4 | |
| 20260509130933 | 21 | 0.0 | 4.8 | 0.00 | 0.00 | 0.00 | 95 | 1010.4 | |
| 20260509130430 | 21 | 0.0 | 4.8 | 0.00 | 0.00 | 0.00 | 95 | 1010.2 | |
| 20260509125927 | 21 | 0.0 | 4.8 | 0.00 | 0.00 | 0.00 | 95 | 1010.2 | |
| 20260509125424 | 21 | 0.0 | 3.2 | 0.00 | 0.00 | 0.00 | 95 | 1010.2 | |
| 20260509124920 | 21 | 0.0 | 3.2 | 0.00 | 0.00 | 0.00 | 95 | 1010.3 | |
| 20260509124419 | 21 | 0.0 | 3.2 | 0.00 | 0.00 | 0.00 | 94 | 1010.4 | |
| 20260509123916 | 21 | 0.0 | 3.2 | 0.00 | 0.00 | 0.00 | 95 | 1010.7 | |
| 20260509123414 | 21 | 0.0 | 0.0 | 0.00 | 0.00 | 0.00 | 94 | 1010.8 | |
| 20260509122910 | 21 | 0.0 | 0.0 | 0.00 | 0.00 | 0.00 | 94 | 1010.7 | |
| 20260509122409 | 21 | 0.0 | 0.0 | 0.00 | 0.00 | 0.00 | 94 | 1010.8 | |
| 20260509121906 | 21 | 0.0 | 0.0 | 0.00 | 0.00 | 0.00 | 94 | 1010.9 | |
| 20260509121404 | 21 | 0.0 | 0.0 | 0.00 | 0.00 | 0.00 | 94 | 1010.9 | |
| 20260509120900 | 21 | 0.0 | 0.0 | 0.00 | 0.00 | 0.00 | 94 | 1011.0 | |
| 20260509120359 | 21 | 0.0 | 0.0 | 0.00 | 0.00 | 0.00 | 94 | 1011.0 | |
| 20260509115856 | 21 | 0.0 | 0.0 | 0.00 | 0.00 | 0.00 | 94 | 1011.1 | |
| 20260509115356 | 21 | 0.0 | 0.0 | 0.00 | 0.00 | 0.00 | 94 | 1011.0 | |
| 20260509114850 | 21 | 0.0 | 0.0 | 0.00 | 0.00 | 0.00 | 94 | 1011.2 | |
| 20260509114349 | 21 | 0.0 | 0.0 | 0.00 | 0.00 | 0.00 | 94 | 1011.5 | |
| 20260509113846 | 21 | 0.0 | 0.0 | 0.00 | 0.00 | 0.00 | 94 | 1011.7 | |
| 20260509113344 | 21 | 0.0 | 0.0 | 0.00 | 0.00 | 0.00 | 94 | 1011.8 | |
| 20260509112840 | 21 | 0.0 | 0.0 | 0.00 | 0.00 | 0.00 | 94 | 1011.8 | |
| 20260509112339 | 21 | 0.0 | 0.0 | 0.00 | 0.00 | 0.00 | 94 | 1011.8 | |
| 20260509111836 | 21 | 0.0 | 0.0 | 0.00 | 0.00 | 0.00 | 94 | 1011.9 | |
| 20260509111334 | 21 | 0.0 | 0.0 | 0.00 | 0.00 | 0.00 | 94 | 1011.9 | |
| 20260509110830 | 21 | 0.0 | 0.0 | 0.00 | 0.00 | 0.00 | 94 | 1012.1 | |
| 20260509110329 | 21 | 0.0 | 0.0 | 0.00 | 0.00 | 0.00 | 94 | 1012.1 | |
| 20260509105826 | 21 | 0.0 | 0.0 | 0.00 | 0.00 | 0.00 | 94 | 1012.1 | |
| 20260509105323 | 21 | 0.0 | 1.6 | 0.00 | 0.00 | 0.00 | 94 | 1012.3 | |
| 20260509104820 | 21 | 0.0 | 1.6 | 0.00 | 0.00 | 0.00 | 94 | 1012.5 | |
| 20260509104318 | 21 | 0.0 | 0.0 | 0.00 | 0.00 | 0.00 | 94 | 1012.4 | |
| 20260509103816 | 21 | 0.0 | 0.0 | 0.00 | 0.00 | 0.00 | 94 | 1012.5 | |
| 20260509103313 | 21 | 0.0 | 0.0 | 0.00 | 0.00 | 0.00 | 94 | 1012.6 | |
| 20260509102810 | 21 | 0.0 | 1.6 | 0.00 | 0.00 | 0.00 | 94 | 1012.5 | |
| 20260509102308 | 21 | 0.0 | 1.6 | 0.00 | 0.00 | 0.00 | 94 | 1012.3 | |
| 20260509101804 | 21 | 0.0 | 0.0 | 0.00 | 0.00 | 0.00 | 94 | 1012.0 | |
| 20260509101303 | 21 | 0.0 | 0.0 | 0.00 | 0.00 | 0.00 | 94 | 1012.1 | |
| 20260509100800 | 21 | 0.0 | 0.0 | 0.00 | 0.00 | 0.00 | 94 | 1012.1 | |
| 20260509100258 | 21 | 0.0 | 0.0 | 0.00 | 0.00 | 0.00 | 94 | 1012.0 | |
| 20260509095754 | 21 | 0.0 | 0.0 | 0.00 | 0.00 | 0.00 | 94 | 1011.9 | |
| 20260509095253 | 21 | 0.0 | 0.0 | 0.00 | 0.00 | 0.00 | 94 | 1011.7 | |
| 20260509094750 | 21 | 0.0 | 1.6 | 0.00 | 0.00 | 0.00 | 94 | 1011.5 | |
| 20260509094248 | 21 | 0.0 | 1.6 | 0.00 | 0.00 | 0.00 | 94 | 1011.4 | |
| 20260509093744 | 21 | 0.0 | 0.0 | 0.00 | 0.00 | 0.00 | 94 | 1011.5 | |
| 20260509093243 | 21 | 0.0 | 0.0 | 0.00 | 0.00 | 0.00 | 94 | 1011.4 | |
| 20260509092740 | 21 | 0.0 | 0.0 | 0.00 | 0.00 | 0.00 | 93 | 1011.2 | |
| 20260509092238 | 21 | 0.0 | 0.0 | 0.00 | 0.00 | 0.00 | 93 | 1010.8 | |
| 20260509091734 | 21 | 0.0 | 0.0 | 0.00 | 0.00 | 0.00 | 93 | 1010.7 | |
| 20260509091233 | 21 | 0.0 | 0.0 | 0.00 | 0.00 | 0.00 | 93 | 1010.5 | |
| 20260509090730 | 22 | 0.0 | 0.0 | 0.00 | 0.00 | 0.00 | 93 | 1010.5 | |
| 20260509090228 | 22 | 0.0 | 3.2 | 0.00 | 0.00 | 0.00 | 93 | 1010.5 | |
| 20260509085724 | 22 | 0.0 | 4.8 | 0.00 | 0.00 | 0.00 | 93 | 1010.7 | |
| 20260509085223 | 22 | 0.0 | 4.8 | 0.00 | 0.00 | 0.00 | 93 | 1010.6 | |
| 20260509084720 | 22 | 0.0 | 1.6 | 0.00 | 0.00 | 0.00 | 93 | 1010.7 | |
| 20260509084217 | 22 | 0.0 | 0.0 | 0.00 | 0.00 | 0.00 | 92 | 1010.8 | |
| 20260509083714 | 22 | 0.0 | 0.0 | 0.00 | 0.00 | 0.00 | 92 | 1011.0 | |
| 20260509083213 | 22 | 0.0 | 0.0 | 0.00 | 0.00 | 0.00 | 92 | 1011.2 | |
| 20260509082710 | 22 | 0.0 | 0.0 | 0.00 | 0.00 | 0.00 | 92 | 1011.1 | |
| 20260509082207 | 22 | 0.0 | 0.0 | 0.00 | 0.00 | 0.00 | 92 | 1011.2 | |
| 20260509081704 | 22 | 0.0 | 0.0 | 0.00 | 0.00 | 0.00 | 92 | 1011.0 | |
| 20260509081202 | 22 | 0.0 | 0.0 | 0.00 | 0.00 | 0.00 | 92 | 1011.2 | |
| 20260509080700 | 22 | 0.0 | 0.0 | 0.00 | 0.00 | 0.00 | 91 | 1011.0 | |
| 20260509080157 | 22 | 0.0 | 0.0 | 0.00 | 0.00 | 0.00 | 91 | 1011.0 | |
| 20260509075654 | 22 | 0.0 | 0.0 | 0.00 | 0.00 | 0.00 | 91 | 1011.0 | |
| 20260509075152 | 22 | 0.0 | 0.0 | 0.00 | 0.00 | 0.00 | 91 | 1011.2 | |
| 20260509074648 | 22 | 0.0 | 0.0 | 0.00 | 0.00 | 0.00 | 91 | 1011.3 | |
| 20260509074147 | 22 | 0.0 | 0.0 | 0.00 | 0.00 | 0.00 | 91 | 1011.6 | |
| 20260509073644 | 22 | 0.0 | 0.0 | 0.00 | 0.00 | 0.00 | 91 | 1011.7 | |
| 20260509073142 | 22 | 0.0 | 0.0 | 0.00 | 0.00 | 0.00 | 91 | 1011.5 | |
| 20260509072638 | 22 | 0.0 | 0.0 | 0.00 | 0.00 | 0.00 | 91 | 1011.3 | |
| 20260509072137 | 22 | 0.0 | 0.0 | 0.00 | 0.00 | 0.00 | 91 | 1011.7 | |
| 20260509071634 | 22 | 0.0 | 0.0 | 0.00 | 0.00 | 0.00 | 91 | 1011.8 | |
| 20260509071132 | 22 | 0.0 | 0.0 | 0.00 | 0.00 | 0.00 | 91 | 1011.7 | |
| 20260509070628 | 22 | 0.0 | 0.0 | 0.00 | 0.00 | 0.00 | 91 | 1011.6 | |
| 20260509070127 | 22 | 0.0 | 0.0 | 0.00 | 0.00 | 0.00 | 91 | 1011.5 | |
| 20260509065624 | 22 | 0.0 | 0.0 | 0.00 | 0.00 | 0.00 | 90 | 1011.3 | |
| 20260509065123 | 22 | 0.0 | 0.0 | 0.00 | 0.00 | 0.00 | 90 | 1011.3 | |
| 20260509064618 | 22 | 0.0 | 0.0 | 0.00 | 0.00 | 0.00 | 90 | 1011.5 | |
| 20260509064117 | 22 | 0.0 | 0.0 | 0.00 | 0.00 | 0.00 | 90 | 1011.4 | |
| 20260509063614 | 22 | 0.0 | 0.0 | 0.00 | 0.00 | 0.00 | 90 | 1011.4 | |
| 20260509063112 | 22 | 0.0 | 0.0 | 0.00 | 0.00 | 0.00 | 90 | 1011.5 | |
| 20260509062608 | 22 | 0.0 | 0.0 | 0.00 | 0.00 | 0.00 | 90 | 1011.5 | |
| 20260509062107 | 22 | 0.0 | 0.0 | 0.00 | 0.00 | 0.00 | 90 | 1011.6 | |
| 20260509061604 | 22 | 0.0 | 0.0 | 0.00 | 0.00 | 0.00 | 90 | 1011.5 | |
| 20260509061101 | 22 | 0.0 | 0.0 | 0.00 | 0.00 | 0.00 | 90 | 1011.4 | |
| 20260509060558 | 22 | 0.0 | 3.2 | 0.00 | 0.00 | 0.00 | 90 | 1011.4 | |
| 20260509060056 | 22 | 0.0 | 3.2 | 0.00 | 0.00 | 0.00 | 90 | 1011.4 | |
| 20260509055554 | 22 | 0.0 | 0.0 | 0.00 | 0.00 | 0.00 | 90 | 1011.6 | |
| 20260509055051 | 22 | 0.0 | 0.0 | 0.00 | 0.00 | 0.00 | 90 | 1011.5 | |
| 20260509054548 | 22 | 0.0 | 4.8 | 0.00 | 0.00 | 0.00 | 90 | 1011.1 | |
| 20260509054046 | 22 | 0.0 | 4.8 | 0.00 | 0.00 | 0.00 | 90 | 1010.7 | |
| 20260509053544 | 22 | 0.0 | 0.0 | 0.00 | 0.00 | 0.00 | 90 | 1010.6 | |
| 20260509053041 | 22 | 0.0 | 3.2 | 0.00 | 0.00 | 0.00 | 90 | 1010.3 | |
| 20260509052538 | 22 | 0.0 | 3.2 | 0.00 | 0.00 | 0.00 | 90 | 1010.2 | |
| 20260509052036 | 22 | 0.0 | 0.0 | 0.00 | 0.00 | 0.00 | 90 | 1010.2 | |
| 20260509051534 | 22 | 0.0 | 0.0 | 0.00 | 0.00 | 0.00 | 89 | 1010.2 | |
| 20260509051031 | 22 | 0.0 | 0.0 | 0.00 | 0.00 | 0.00 | 89 | 1010.1 | |
| 20260509050528 | 22 | 0.0 | 0.0 | 0.00 | 0.00 | 0.00 | 89 | 1010.0 | |
| 20260509050026 | 22 | 0.0 | 0.0 | 0.00 | 0.00 | 0.00 | 89 | 1009.9 | |
| 20260509045518 | 22 | 0.0 | 0.0 | 0.00 | 0.00 | 0.00 | 89 | 1009.9 | |
| 20260509045014 | 22 | 0.0 | 0.0 | 0.00 | 0.00 | 0.00 | 89 | 1010.0 | |
| 20260509044512 | 22 | 0.0 | 0.0 | 0.00 | 0.00 | 0.00 | 89 | 1009.9 | |
| 20260509044010 | 22 | 0.0 | 0.0 | 0.00 | 0.00 | 0.00 | 89 | 1010.2 | |
| 20260509043508 | 22 | 0.0 | 3.2 | 0.00 | 0.00 | 0.00 | 88 | 1010.3 | |
| 20260509043004 | 22 | 0.0 | 3.2 | 0.00 | 0.00 | 0.00 | 88 | 1010.5 | |
| 20260509042501 | 22 | 0.0 | 0.0 | 0.00 | 0.00 | 0.00 | 88 | 1010.5 | |
| 20260509041957 | 22 | 0.0 | 0.0 | 0.00 | 0.00 | 0.00 | 88 | 1010.5 | |
| 20260509041455 | 22 | 0.0 | 1.6 | 0.00 | 0.00 | 0.00 | 88 | 1010.6 | |
| 20260509040953 | 22 | 0.0 | 1.6 | 0.00 | 0.00 | 0.00 | 88 | 1010.5 | |
| 20260509040451 | 22 | 0.0 | 0.0 | 0.00 | 0.00 | 0.00 | 88 | 1010.5 | |
| 20260509035947 | 22 | 0.0 | 4.8 | 0.00 | 0.00 | 0.00 | 88 | 1010.5 | |
| 20260509035445 | 22 | 0.0 | 4.8 | 0.00 | 0.00 | 0.00 | 88 | 1010.5 | |
| 20260509034943 | 22 | 0.0 | 0.0 | 0.00 | 0.00 | 0.00 | 88 | 1010.5 | |
| 20260509034441 | 22 | 0.0 | 0.0 | 0.00 | 0.00 | 0.00 | 88 | 1010.6 | |
| 20260509033937 | 22 | 0.0 | 0.0 | 0.00 | 0.00 | 0.00 | 88 | 1010.5 | |
| 20260509033435 | 22 | 0.0 | 0.0 | 0.00 | 0.00 | 0.00 | 89 | 1010.4 | |
| 20260509032935 | 22 | 0.0 | 0.0 | 0.00 | 0.00 | 0.00 | 89 | 1010.3 | |
| 20260509032431 | 22 | 0.0 | 0.0 | 0.00 | 0.00 | 0.00 | 89 | 1010.3 | |
| 20260509031927 | 22 | 0.0 | 0.0 | 0.00 | 0.00 | 0.00 | 89 | 1010.3 | |
| 20260509031425 | 22 | 0.0 | 0.0 | 0.00 | 0.00 | 0.00 | 89 | 1010.3 | |
| 20260509030923 | 22 | 0.0 | 0.0 | 0.00 | 0.00 | 0.00 | 89 | 1010.1 | |
| 20260509030421 | 22 | 0.0 | 0.0 | 0.00 | 0.00 | 0.00 | 89 | 1010.0 | |
| 20260509025917 | 22 | 0.0 | 0.0 | 0.00 | 0.00 | 0.00 | 89 | 1010.0 | |
| 20260509025415 | 22 | 0.0 | 0.0 | 0.00 | 0.00 | 0.00 | 89 | 1010.0 | |
| 20260509024913 | 22 | 0.0 | 0.0 | 0.00 | 0.00 | 0.00 | 89 | 1009.9 | |
| 20260509024411 | 22 | 0.0 | 0.0 | 0.00 | 0.00 | 0.00 | 88 | 1009.7 | |
| 20260509023907 | 22 | 0.0 | 0.0 | 0.00 | 0.00 | 0.00 | 88 | 1009.7 | |
| 20260509023405 | 22 | 0.0 | 0.0 | 0.00 | 0.00 | 0.00 | 88 | 1009.8 | |
| 20260509022903 | 22 | 0.0 | 0.0 | 0.00 | 0.00 | 0.00 | 88 | 1009.8 | |
| 20260509022401 | 22 | 0.0 | 0.0 | 0.00 | 0.00 | 0.00 | 88 | 1009.9 | |
| 20260509021857 | 22 | 0.0 | 0.0 | 0.00 | 0.00 | 0.00 | 88 | 1009.7 | |
| 20260509021355 | 22 | 0.0 | 0.0 | 0.00 | 0.00 | 0.00 | 87 | 1009.7 | |
| 20260509020853 | 22 | 0.0 | 0.0 | 0.00 | 0.00 | 0.00 | 87 | 1009.6 | |
| 20260509020351 | 22 | 0.0 | 0.0 | 0.00 | 0.00 | 0.00 | 87 | 1009.5 | |
| 20260509015847 | 22 | 0.0 | 0.0 | 0.00 | 0.00 | 0.00 | 86 | 1009.4 | |
| 20260509015345 | 22 | 0.0 | 0.0 | 0.00 | 0.00 | 0.00 | 86 | 1009.4 | |
| 20260509014841 | 22 | 0.0 | 0.0 | 0.00 | 0.00 | 0.00 | 86 | 1009.3 | |
| 20260509014339 | 22 | 0.0 | 0.0 | 0.00 | 0.00 | 0.00 | 86 | 1009.3 | |
| 20260509013837 | 22 | 0.0 | 0.0 | 0.00 | 0.00 | 0.00 | 85 | 1009.2 | |
| 20260509013335 | 23 | 0.0 | 0.0 | 0.00 | 0.00 | 0.00 | 84 | 1009.2 | |
| 20260509012831 | 23 | 0.0 | 1.6 | 0.00 | 0.00 | 0.00 | 84 | 1009.2 | |
| 20260509012329 | 23 | 0.0 | 1.6 | 0.00 | 0.00 | 0.00 | 84 | 1009.2 | |
| 20260509011827 | 23 | 0.0 | 0.0 | 0.00 | 0.00 | 0.00 | 83 | 1009.2 | |
| 20260509011325 | 23 | 0.0 | 0.0 | 0.00 | 0.00 | 0.00 | 83 | 1009.1 | |
| 20260509010821 | 23 | 0.0 | 0.0 | 0.00 | 0.00 | 0.00 | 83 | 1008.9 | |
| 20260509010319 | 23 | 0.0 | 0.0 | 0.00 | 0.00 | 0.00 | 83 | 1009.0 | |
| 20260509005817 | 23 | 0.0 | 1.6 | 0.00 | 0.00 | 0.00 | 83 | 1009.2 | |
| 20260509005315 | 23 | 0.0 | 1.6 | 0.00 | 0.00 | 0.00 | 83 | 1009.2 | |
| 20260509004811 | 23 | 0.0 | 0.0 | 0.00 | 0.00 | 0.00 | 83 | 1009.2 | |
| 20260509004309 | 23 | 0.0 | 0.0 | 0.00 | 0.00 | 0.00 | 82 | 1009.2 | |
| 20260509003807 | 23 | 0.0 | 0.0 | 0.00 | 0.00 | 0.00 | 83 | 1009.2 | |
| 20260509003305 | 23 | 0.0 | 0.0 | 0.00 | 0.00 | 0.00 | 82 | 1009.2 | |
| 20260509002801 | 23 | 0.0 | 0.0 | 0.00 | 0.00 | 0.00 | 82 | 1009.1 | |
| 20260509002259 | 23 | 0.0 | 0.0 | 0.00 | 0.00 | 0.00 | 82 | 1009.1 | |
| 20260509001757 | 23 | 0.0 | 0.0 | 0.00 | 0.00 | 0.00 | 82 | 1009.2 | |
| 20260509001255 | 23 | 0.0 | 0.0 | 0.00 | 0.00 | 0.00 | 82 | 1009.2 | |
| 20260509000751 | 23 | 0.0 | 0.0 | 0.00 | 0.00 | 0.00 | 82 | 1009.2 | |
| 20260509000249 | 23 | 0.0 | 0.0 | 0.00 | 0.00 | 0.00 | 82 | 1009.3 | |
| 20260508235747 | 23 | 0.0 | 0.0 | 0.00 | 0.00 | 0.00 | 82 | 1009.3 | |
| 20260508235245 | 24 | 0.0 | 0.0 | 0.00 | 0.00 | 0.00 | 82 | 1009.3 | |
| 20260508234741 | 24 | 0.0 | 0.0 | 0.00 | 0.00 | 0.00 | 81 | 1009.4 | |
| 20260508234239 | 24 | 0.0 | 3.2 | 0.00 | 0.00 | 0.00 | 81 | 1009.4 | |
| 20260508233737 | 24 | 0.0 | 3.2 | 0.00 | 0.00 | 0.00 | 81 | 1009.3 | |
| 20260508233235 | 24 | 0.0 | 0.0 | 0.00 | 0.00 | 0.00 | 81 | 1009.4 | |
| 20260508232731 | 24 | 0.0 | 4.8 | 0.00 | 0.00 | 0.00 | 81 | 1009.3 | |
| 20260508232229 | 24 | 0.0 | 4.8 | 0.00 | 0.00 | 0.00 | 80 | 1009.3 | |
| 20260508231727 | 24 | 0.0 | 6.4 | 0.00 | 0.00 | 0.00 | 81 | 1009.2 | |
| 20260508231225 | 24 | 170 | 1.6 | 6.4 | 0.00 | 0.00 | 0.00 | 80 | 1009.2 |
| 20260508230721 | 24 | 0.0 | 6.4 | 0.00 | 0.00 | 0.00 | 80 | 1009.3 | |
| 20260508230219 | 24 | 0.0 | 4.8 | 0.00 | 0.00 | 0.00 | 79 | 1009.2 | |
| 20260508225715 | 24 | 0.0 | 1.6 | 0.00 | 0.00 | 0.00 | 79 | 1009.2 | |
| 20260508225213 | 24 | 0.0 | 1.6 | 0.00 | 0.00 | 0.00 | 79 | 1009.2 | |
| 20260508224711 | 24 | 0.0 | 1.6 | 0.00 | 0.00 | 0.00 | 79 | 1009.2 | |
| 20260508224209 | 25 | 0.0 | 1.6 | 0.00 | 0.00 | 0.00 | 78 | 1009.3 | |
| 20260508223705 | 25 | 0.0 | 12.9 | 0.00 | 0.00 | 0.00 | 78 | 1009.3 | |
| 20260508223203 | 25 | 167 | 1.6 | 12.9 | 0.00 | 0.00 | 0.00 | 79 | 1009.3 |
| 20260508222701 | 25 | 0.0 | 3.2 | 0.00 | 0.00 | 0.00 | 78 | 1009.3 | |
| 20260508222159 | 25 | 0.0 | 3.2 | 0.00 | 0.00 | 0.00 | 78 | 1009.3 | |
| 20260508221655 | 25 | 0.0 | 3.2 | 0.00 | 0.00 | 0.00 | 78 | 1009.4 | |
| 20260508221153 | 25 | 0.0 | 1.6 | 0.00 | 0.00 | 0.00 | 77 | 1009.4 | |
| 20260508220651 | 25 | 0.0 | 1.6 | 0.00 | 0.00 | 0.00 | 78 | 1009.4 | |
| 20260508220149 | 25 | 0.0 | 0.0 | 0.00 | 0.00 | 0.00 | 77 | 1009.5 | |
| 20260508215645 | 25 | 0.0 | 3.2 | 0.00 | 0.00 | 0.00 | 76 | 1009.6 | |
| 20260508215143 | 25 | 0.0 | 4.8 | 0.00 | 0.00 | 0.00 | 76 | 1009.6 | |
| 20260508214641 | 25 | 0.0 | 4.8 | 0.00 | 0.00 | 0.00 | 75 | 1009.6 | |
| 20260508214139 | 25 | 165 | 1.6 | 4.8 | 0.00 | 0.00 | 0.00 | 75 | 1009.5 |
| 20260508213635 | 25 | 0.0 | 4.8 | 0.00 | 0.00 | 0.00 | 74 | 1009.5 | |
| 20260508213133 | 26 | 0.0 | 4.8 | 0.00 | 0.00 | 0.00 | 73 | 1009.7 |